QPF
0.00 0.00 0.00 0.00 0.00 0.00 0.00 0.00 0.00 0.00 0.00 0.00 0.00 0.00 0.00 0.00 0.00 0.00 0.00 0.00 0.00 0.00 0.01 0.01 0.01 0.01 0.01 0.00 0.00 0.00 0.01 0.05 0.07 0.06 0.09 0.02 0.03 0.04 0.04 0.05 0.05 0.03 0.09
0.00 0.00 0.00 0.00 0.00 0.00 0.00 0.00 0.00 0.00 0.00 0.00 0.00 0.00 0.00 0.00 0.00 0.00 0.00 0.00 0.00 0.00 0.00 0.01 0.01 0.02 0.01 0.00 0.00 0.00 0.00 0.03 0.10 0.09 0.06 0.01 0.02 0.02 0.03 0.02 0.02 0.03 0.05
0.00 0.00 0.00 0.00 0.00 0.00 0.00 0.00 0.00 0.00 0.00 0.00 0.00 0.00 0.00 0.00 0.00 0.00 0.00 0.00 0.00 0.00 0.00 0.00 0.00 0.02 0.02 0.01 0.02 0.02 0.01 0.01 0.06 0.09 0.04 0.01 0.00 0.00 0.01 0.03 0.02 0.03 0.01
0.00 0.00 0.00 0.00 0.00 0.00 0.00 0.00 0.00 0.00 0.00 0.00 0.00 0.00 0.00 0.00 0.00 0.00 0.00 0.00 0.00 0.00 0.00 0.00 0.00 0.01 0.01 0.01 0.01 0.03 0.03 0.01 0.01 0.04 0.03 0.00 0.00 0.01 0.01 0.01 0.02 0.02 0.02
0.00 0.00 0.00 0.00 0.00 0.00 0.00 0.00 0.00 0.00 0.00 0.00 0.00 0.00 0.00 0.00 0.00 0.00 0.00 0.00 0.00 0.00 0.00 0.00 0.00 0.01 0.01 0.00 0.00 0.01 0.03 0.05 0.03 0.01 0.01 0.01 0.00 0.00 0.02 0.01 0.02 0.02 0.02
0.00 0.00 0.00 0.00 0.00 0.00 0.00 0.00 0.00 0.00 0.00 0.00 0.00 0.00 0.00 0.00 0.00 0.00 0.00 0.00 0.00 0.00 0.00 0.00 0.01 0.01 0.00 0.00 0.00 0.00 0.01 0.02 0.03 0.02 0.00 0.00 0.01 0.02 0.03 0.02 0.02 0.01 0.00
0.00 0.00 0.00 0.00 0.00 0.00 0.00 0.00 0.00 0.00 0.00 0.00 0.00 0.00 0.00 0.00 0.00 0.00 0.00 0.00 0.00 0.00 0.00 0.00 0.00 0.00 0.00 0.00 0.00 0.00 0.00 0.00 0.00 0.00 0.00 0.01 0.02 0.03 0.02 0.01 0.01 0.00 0.00
0.00 0.00 0.00 0.00 0.00 0.00 0.00 0.00 0.00 0.00 0.00 0.00 0.00 0.00 0.00 0.00 0.00 0.00 0.00 0.00 0.00 0.00 0.00 0.00 0.00 0.00 0.00 0.00 0.00 0.00 0.00 0.00 0.00 0.00 0.01 0.01 0.01 0.00 0.00 0.00 0.00 0.00 0.00
0.00 0.00 0.00 0.00 0.00 0.00 0.00 0.00 0.00 0.00 0.00 0.00 0.00 0.00 0.00 0.00 0.00 0.00 0.00 0.00 0.00 0.00 0.00 0.00 0.00 0.00 0.00 0.00 0.00 0.00 0.00 0.00 0.00 0.00 0.00 0.00 0.00 0.00 0.00 0.00 0.00 0.00 0.00
0.00 0.00 0.00 0.00 0.00 0.00 0.00 0.00 0.00 0.00 0.00 0.00 0.00 0.00 0.00 0.00 0.00 0.00 0.00 0.00 0.00 0.00 0.00 0.00 0.00 0.00 0.00 0.00 0.00 0.00 0.00 0.00 0.00 0.00 0.00 0.00 0.00 0.00 0.00 0.00 0.00 0.00 0.00
0.00 0.00 0.00 0.00 0.00 0.00 0.00 0.00 0.00 0.00 0.00 0.00 0.00 0.00 0.00 0.00 0.00 0.00 0.00 0.00 0.00 0.00 0.00 0.00 0.00 0.00 0.00 0.00 0.00 0.00 0.00 0.00 0.00 0.00 0.00 0.00 0.00 0.00 0.00 0.00 0.00 0.00 0.00
0.00 0.00 0.00 0.00 0.00 0.00 0.00 0.00 0.00 0.00 0.00 0.00 0.00 0.00 0.00 0.00 0.00 0.00 0.00 0.00 0.00 0.00 0.00 0.00 0.00 0.00 0.00 0.00 0.00 0.00 0.00 0.00 0.00 0.00 0.00 0.00 0.00 0.00 0.00 0.00 0.00 0.00 0.00
0.00 0.00 0.00 0.00 0.00 0.00 0.00 0.00 0.00 0.00 0.00 0.00 0.00 0.00 0.00 0.00 0.00 0.00 0.00 0.00 0.00 0.00 0.00 0.00 0.00 0.00 0.00 0.00 0.00 0.00 0.00 0.00 0.00 0.00 0.00 0.00 0.00 0.00 0.00 0.00 0.00 0.00 0.00
0.00 0.00 0.00 0.00 0.00 0.00 0.00 0.00 0.00 0.00 0.00 0.00 0.00 0.00 0.00 0.00 0.00 0.00 0.00 0.00 0.00 0.00 0.00 0.00 0.00 0.00 0.00 0.00 0.00 0.00 0.00 0.00 0.00 0.00 0.00 0.00 0.00 0.00 0.00 0.00 0.00 0.00 0.00
0.00 0.00 0.00 0.00 0.00 0.00 0.00 0.00 0.00 0.00 0.00 0.00 0.00 0.00 0.00 0.00 0.00 0.00 0.00 0.00 0.00 0.00 0.00 0.00 0.00 0.00 0.00 0.00 0.00 0.00 0.00 0.00 0.00 0.00 0.00 0.00 0.00 0.00 0.00 0.00 0.00 0.00 0.00
0.00 0.00 0.00 0.00 0.00 0.00 0.00 0.00 0.00 0.00 0.00 0.00 0.00 0.00 0.00 0.00 0.00 0.00 0.00 0.00 0.00 0.00 0.00 0.00 0.00 0.00 0.00 0.00 0.00 0.00 0.00 0.00 0.00 0.00 0.00 0.00 0.00 0.00 0.00 0.00 0.00 0.00 0.00
0.00 0.00 0.00 0.00 0.00 0.00 0.00 0.00 0.00 0.00 0.00 0.00 0.00 0.00 0.00 0.00 0.00 0.00 0.00 0.00 0.00 0.00 0.00 0.00 0.00 0.00 0.00 0.00 0.00 0.00 0.00 0.00 0.00 0.00 0.00 0.00 0.00 0.00 0.00 0.00 0.00 0.00 0.00
0.00 0.00 0.00 0.00 0.00 0.00 0.00 0.00 0.00 0.00 0.00 0.00 0.00 0.00 0.00 0.00 0.00 0.00 0.00 0.00 0.00 0.00 0.00 0.00 0.00 0.00 0.00 0.00 0.00 0.00 0.00 0.00 0.00 0.00 0.00 0.00 0.00 0.00 0.00 0.00 0.00 0.00 0.00
0.00 0.00 0.00 0.00 0.00 0.00 0.00 0.00 0.00 0.00 0.00 0.00 0.00 0.00 0.00 0.00 0.00 0.00 0.00 0.00 0.00 0.00 0.00 0.00 0.00 0.00 0.00 0.00 0.00 0.00 0.00 0.00 0.00 0.00 0.00 0.00 0.00 0.00 0.00 0.00 0.00 0.00 0.00
0.00 0.00 0.00 0.00 0.00 0.00 0.00 0.00 0.00 0.00 0.00 0.00 0.00 0.00 0.00 0.00 0.00 0.00 0.00 0.00 0.00 0.00 0.00 0.00 0.00 0.00 0.00 0.00 0.00 0.00 0.00 0.00 0.00 0.00 0.00 0.00 0.00 0.00 0.00 0.00 0.00 0.00 0.00
0.00 0.00 0.00 0.00 0.00 0.00 0.00 0.00 0.00 0.00 0.00 0.00 0.00 0.00 0.00 0.00 0.00 0.00 0.00 0.00 0.00 0.00 0.00 0.00 0.00 0.00 0.00 0.00 0.00 0.00 0.00 0.00 0.00 0.00 0.00 0.00 0.00 0.00 0.00 0.00 0.00 0.00 0.00
0.00 0.00 0.00 0.00 0.00 0.00 0.00 0.00 0.00 0.00 0.00 0.00 0.00 0.00 0.00 0.00 0.00 0.00 0.00 0.00 0.00 0.00 0.00 0.00 0.00 0.00 0.00 0.00 0.00 0.00 0.00 0.00 0.00 0.00 0.00 0.00 0.00 0.00 0.00 0.00 0.00 0.00 0.00
0.00 0.00 0.00 0.00 0.00 0.00 0.00 0.00 0.00 0.00 0.00 0.00 0.00 0.00 0.00 0.00 0.00 0.00 0.00 0.00 0.00 0.00 0.00 0.00 0.00 0.00 0.00 0.00 0.00 0.00 0.00 0.00 0.00 0.00 0.00 0.00 0.00 0.00 0.00 0.00 0.00 0.00 0.00
0.00 0.00 0.00 0.00 0.00 0.00 0.00 0.00 0.00 0.00 0.00 0.00 0.00 0.00 0.00 0.00 0.00 0.00 0.00 0.00 0.00 0.00 0.00 0.00 0.00 0.00 0.00 0.00 0.00 0.00 0.00 0.00 0.00 0.00 0.00 0.00 0.00 0.00 0.00 0.00 0.00 0.00 0.00
0.00 0.00 0.00 0.00 0.00 0.00 0.00 0.00 0.00 0.00 0.00 0.00 0.00 0.00 0.00 0.00 0.00 0.00 0.00 0.00 0.00 0.00 0.00 0.00 0.00 0.00 0.00 0.00 0.00 0.00 0.00 0.00 0.00 0.00 0.00 0.00 0.00 0.00 0.00 0.00 0.00 0.00 0.00
0.00 0.00 0.00 0.00 0.00 0.00 0.00 0.00 0.00 0.00 0.00 0.00 0.00 0.00 0.00 0.00 0.00 0.00 0.00 0.00 0.00 0.00 0.00 0.00 0.00 0.00 0.00 0.00 0.00 0.00 0.00 0.00 0.00 0.00 0.00 0.00 0.00 0.00 0.00 0.00 0.00 0.00 0.00
MSLP
1018.12 1017.99 1017.68 1017.32 1017.06 1016.68 1016.04 1015.23 1014.75 1014.00 1013.24 1012.49 1011.66 1010.76 1010.02 1009.21 1008.57 1007.97 1007.31 1006.83 1006.41 1006.15 1005.92 1005.69 1005.38 1005.23 1004.91 1004.62 1004.13 1003.57 1003.34 1003.36 1001.90 1001.37 1001.49 1001.82 1002.29 1002.61 1002.86 1003.00 1003.14 1003.35 1004.35
1018.51 1018.19 1017.91 1017.61 1017.01 1016.35 1015.60 1015.07 1014.41 1013.66 1012.87 1012.04 1011.19 1010.29 1009.38 1008.50 1007.80 1007.11 1006.37 1005.89 1005.45 1005.08 1004.95 1004.89 1004.59 1004.37 1004.19 1004.01 1003.78 1003.12 1002.16 1002.11 1001.99 1001.53 1001.52 1002.09 1002.59 1003.07 1003.37 1003.55 1003.77 1004.03 1004.54
1019.01 1018.65 1018.00 1017.45 1016.89 1016.21 1015.67 1015.01 1014.22 1013.39 1012.54 1011.63 1010.71 1009.78 1008.81 1007.86 1006.87 1006.07 1005.40 1004.89 1004.48 1004.17 1004.15 1004.07 1003.85 1003.71 1003.43 1003.26 1003.01 1002.29 1001.65 1001.43 1001.53 1001.75 1001.71 1002.27 1003.06 1003.59 1004.00 1004.20 1004.43 1004.69 1004.91
1019.38 1018.84 1018.07 1017.57 1017.04 1016.20 1015.78 1014.83 1013.92 1013.11 1012.25 1011.31 1010.38 1009.42 1008.43 1007.27 1006.14 1004.95 1004.02 1003.82 1003.55 1003.37 1003.37 1003.41 1003.24 1003.09 1002.78 1002.58 1002.40 1001.97 1001.03 1000.58 1001.09 1001.21 1001.78 1002.22 1002.95 1003.73 1004.08 1004.36 1004.89 1005.28 1005.60
1019.53 1018.99 1018.55 1017.95 1017.17 1016.57 1015.55 1014.59 1013.81 1013.11 1012.21 1011.27 1010.25 1009.25 1008.24 1007.07 1005.92 1004.54 1002.91 1003.28 1003.26 1002.99 1002.92 1002.81 1002.70 1002.53 1002.27 1002.07 1002.02 1001.64 1001.22 1001.10 1000.97 1001.37 1001.89 1002.50 1003.11 1003.71 1004.08 1004.59 1005.01 1005.58 1006.08
1019.88 1019.51 1018.97 1018.11 1017.40 1016.30 1015.49 1014.42 1013.93 1013.10 1012.21 1011.29 1010.32 1009.27 1008.29 1007.26 1006.23 1004.75 1003.66 1003.34 1003.04 1002.89 1002.61 1002.33 1002.12 1002.03 1001.55 1001.66 1001.81 1001.94 1002.03 1001.79 1001.15 1001.36 1001.80 1002.43 1003.07 1003.49 1004.15 1004.87 1005.47 1005.97 1006.27
1020.17 1019.57 1018.84 1018.11 1017.09 1016.05 1015.50 1014.71 1014.05 1013.28 1012.43 1011.53 1010.55 1009.60 1008.51 1007.65 1006.62 1005.52 1004.69 1004.11 1003.75 1003.50 1003.22 1002.89 1002.70 1002.47 1002.15 1001.98 1002.09 1002.37 1002.46 1002.29 1001.98 1001.47 1002.20 1002.87 1003.69 1004.23 1004.43 1005.30 1005.57 1005.99 1005.97
1020.05 1019.27 1018.69 1017.83 1016.64 1016.03 1015.53 1014.89 1014.22 1013.54 1012.77 1011.97 1011.06 1010.11 1009.07 1008.25 1007.28 1006.34 1005.56 1004.96 1004.53 1004.20 1003.91 1003.65 1003.41 1003.25 1003.15 1002.88 1002.71 1002.83 1003.05 1003.12 1002.96 1003.07 1003.21 1003.69 1004.23 1004.35 1004.91 1005.24 1005.77 1005.73 1005.53
1019.52 1019.13 1018.16 1017.13 1016.41 1015.87 1015.29 1014.81 1014.47 1013.88 1013.19 1012.43 1011.69 1010.75 1009.85 1008.96 1008.13 1007.25 1006.40 1005.91 1005.49 1005.19 1005.01 1004.72 1004.40 1004.27 1004.25 1004.04 1003.67 1003.58 1004.00 1004.20 1004.30 1004.15 1004.48 1004.89 1005.15 1005.04 1005.11 1005.29 1005.13 1005.05 1005.03
1019.28 1018.51 1017.70 1017.22 1016.41 1015.91 1014.92 1014.35 1014.11 1013.60 1013.31 1012.75 1011.93 1011.18 1010.56 1009.79 1009.04 1008.21 1007.45 1006.91 1006.49 1006.23 1006.12 1005.86 1005.89 1005.57 1005.33 1004.97 1004.71 1004.65 1004.60 1004.86 1004.98 1005.23 1004.76 1005.37 1005.31 1005.16 1005.08 1004.73 1004.34 1004.42 1005.00
1019.07 1018.27 1017.66 1017.01 1016.40 1016.01 1015.37 1014.75 1014.11 1013.22 1012.90 1012.32 1011.72 1011.22 1010.67 1010.30 1009.80 1009.20 1008.64 1008.07 1007.79 1007.47 1007.19 1007.01 1006.93 1006.46 1006.24 1005.78 1005.37 1005.13 1005.31 1005.23 1005.11 1005.05 1005.26 1005.51 1005.43 1005.49 1005.50 1005.70 1005.56 1005.03 1004.88
1018.81 1018.17 1017.71 1017.23 1016.67 1016.15 1015.59 1014.96 1014.31 1013.57 1012.85 1012.26 1011.80 1011.07 1010.61 1010.12 1010.13 1009.79 1009.32 1008.80 1008.42 1007.86 1007.74 1007.49 1007.69 1007.21 1006.89 1006.55 1006.17 1005.94 1005.57 1005.25 1004.95 1005.17 1005.43 1005.69 1005.85 1005.99 1006.15 1006.39 1006.35 1006.21 1006.19
1018.72 1018.24 1017.79 1017.33 1016.89 1016.57 1015.82 1015.42 1014.94 1014.37 1013.56 1013.11 1012.39 1011.48 1011.07 1010.88 1010.74 1010.01 1009.71 1009.31 1008.85 1008.65 1008.43 1008.22 1007.74 1007.43 1007.00 1006.94 1006.89 1006.47 1006.15 1005.97 1005.90 1006.05 1006.26 1006.43 1006.59 1006.93 1006.74 1006.41 1006.24 1006.48 1006.73
1019.04 1018.35 1017.68 1017.19 1017.03 1016.77 1016.38 1016.03 1016.02 1015.88 1015.14 1014.53 1013.79 1013.19 1012.48 1012.29 1012.23 1011.68 1010.22 1009.51 1009.11 1008.66 1008.39 1008.27 1008.07 1007.90 1007.85 1007.73 1007.49 1007.25 1007.25 1007.23 1007.00 1006.93 1007.02 1007.14 1007.09 1006.80 1006.70 1006.84 1006.34 1006.50 1006.39
1019.08 1018.42 1017.93 1017.13 1016.78 1016.33 1016.29 1016.94 1016.74 1017.55 1017.39 1016.53 1015.81 1014.43 1014.47 1014.00 1014.24 1013.84 1012.64 1011.31 1010.51 1009.72 1009.04 1008.63 1008.90 1008.94 1008.95 1008.76 1008.62 1008.43 1008.41 1008.13 1007.85 1007.67 1007.50 1007.38 1007.25 1007.16 1007.19 1007.41 1007.14 1006.95 1006.81
1019.16 1018.63 1018.17 1017.40 1017.01 1016.74 1016.51 1016.74 1017.55 1017.57 1017.56 1017.49 1017.21 1016.58 1015.42 1015.63 1014.89 1014.00 1013.15 1012.18 1011.30 1010.41 1009.93 1010.16 1010.23 1010.09 1010.02 1009.81 1009.54 1009.25 1009.12 1009.05 1008.87 1008.54 1008.37 1008.28 1008.15 1007.99 1007.82 1007.83 1007.74 1007.59 1007.57
1019.54 1019.23 1018.39 1017.85 1017.48 1017.14 1016.88 1016.73 1016.62 1017.44 1017.28 1017.10 1017.11 1016.92 1016.53 1015.89 1015.04 1014.26 1013.51 1012.99 1012.21 1011.45 1011.52 1011.59 1011.56 1011.45 1011.23 1010.99 1010.72 1010.40 1010.21 1010.21 1009.95 1009.56 1009.21 1009.06 1008.89 1008.64 1008.48 1008.37 1008.30 1008.48 1008.37
1019.60 1019.57 1018.69 1018.39 1018.03 1017.54 1017.36 1017.18 1017.04 1016.79 1016.58 1016.42 1016.69 1016.75 1016.47 1016.06 1015.63 1014.95 1014.00 1013.03 1012.99 1013.21 1013.16 1013.16 1013.02 1012.86 1012.59 1012.27 1011.89 1011.50 1011.10 1010.69 1010.57 1010.22 1009.96 1009.79 1009.56 1009.35 1009.09 1008.95 1009.03 1008.99 1008.93
1019.92 1019.52 1019.08 1018.57 1018.47 1018.21 1017.68 1017.49 1017.31 1017.13 1016.92 1016.58 1016.50 1016.43 1016.10 1015.91 1015.86 1015.79 1015.46 1015.08 1014.91 1014.72 1014.55 1014.32 1014.16 1013.87 1013.59 1013.20 1012.80 1012.28 1011.85 1011.58 1011.35 1010.95 1010.66 1010.40 1010.21 1010.01 1009.67 1009.39 1009.40 1009.57 1009.47
1020.08 1020.40 1019.65 1018.87 1018.49 1018.33 1018.14 1017.85 1017.63 1017.41 1017.11 1016.91 1017.13 1017.24 1016.74 1015.98 1016.32 1016.32 1016.37 1016.24 1015.97 1015.79 1015.65 1015.43 1015.17 1014.85 1014.47 1014.03 1013.55 1013.08 1012.61 1012.20 1011.93 1011.72 1011.43 1011.09 1010.77 1010.43 1010.11 1009.80 1009.65 1009.61 1009.71
1020.11 1019.85 1019.90 1019.21 1018.98 1018.88 1018.74 1018.45 1018.31 1018.00 1017.61 1017.46 1017.52 1018.31 1017.81 1017.19 1017.49 1017.48 1017.35 1017.25 1017.07 1016.81 1016.59 1016.27 1015.83 1015.47 1015.11 1014.67 1014.27 1013.78 1013.36 1012.93 1012.53 1012.29 1011.94 1011.59 1011.13 1010.77 1010.64 1010.35 1010.03 1010.05 1010.07
1020.37 1020.13 1019.88 1019.87 1019.92 1019.64 1019.35 1019.03 1018.85 1018.69 1018.31 1018.04 1017.81 1017.89 1017.85 1017.50 1018.05 1018.10 1018.07 1017.93 1017.79 1017.57 1017.28 1016.91 1016.44 1016.00 1015.57 1015.09 1014.62 1014.19 1013.77 1013.36 1012.97 1012.61 1012.19 1011.79 1011.48 1011.23 1011.09 1010.83 1010.41 1010.35 1010.39
1020.64 1020.41 1020.51 1020.60 1020.10 1020.07 1019.82 1019.63 1019.61 1019.25 1018.93 1018.68 1018.40 1018.12 1018.03 1018.19 1018.37 1018.60 1018.55 1018.41 1018.22 1017.95 1017.62 1017.26 1016.74 1016.21 1015.77 1015.31 1014.87 1014.49 1014.04 1013.69 1013.27 1012.78 1012.35 1012.03 1011.77 1011.53 1011.46 1011.18 1010.79 1010.80 1010.72
1021.17 1021.00 1020.82 1020.60 1020.77 1020.36 1020.31 1020.18 1020.00 1019.93 1019.63 1019.26 1019.07 1018.92 1018.77 1018.91 1019.07 1019.17 1019.07 1018.87 1018.56 1018.20 1017.57 1016.82 1016.40 1016.17 1015.93 1015.60 1015.21 1014.73 1014.27 1013.96 1013.38 1012.83 1012.39 1012.11 1011.93 1011.91 1011.79 1011.45 1011.28 1011.13 1011.16
1021.53 1021.40 1021.41 1021.23 1021.05 1020.96 1020.76 1020.75 1020.59 1020.33 1020.11 1019.98 1019.83 1019.68 1019.46 1019.70 1019.87 1019.80 1019.55 1019.06 1018.37 1017.72 1017.18 1016.84 1016.55 1016.44 1016.29 1015.89 1015.51 1014.98 1014.50 1014.01 1013.46 1013.07 1012.47 1012.34 1012.27 1012.19 1012.03 1011.78 1011.58 1011.50 1011.27
1022.22 1022.05 1021.88 1021.73 1021.67 1021.72 1021.48 1021.37 1021.25 1020.98 1020.80 1020.80 1020.65 1020.44 1020.29 1020.58 1020.65 1020.40 1019.83 1019.23 1018.57 1017.99 1017.48 1016.91 1016.89 1016.89 1016.67 1016.24 1015.79 1015.19 1014.56 1014.01 1013.48 1013.10 1012.67 1012.56 1012.43 1012.31 1012.16 1011.95 1011.99 1011.93 1011.72
Thickness
5580 5574 5567 5561 5555 5550 5546 5543 5538 5536 5535 5534 5534 5534 5531 5530 5528 5528 5530 5533 5536 5537 5539 5540 5542 5544 5548 5554 5565 5581 5589 5593 5610 5620 5623 5625 5625 5626 5627 5626 5625 5626 5620
5566 5560 5554 5548 5545 5542 5540 5535 5531 5531 5531 5531 5531 5531 5530 5529 5528 5529 5531 5534 5537 5538 5539 5540 5543 5547 5550 5557 5566 5580 5595 5600 5603 5610 5615 5616 5616 5615 5614 5614 5613 5611 5610
5552 5546 5544 5540 5536 5533 5530 5526 5526 5526 5528 5529 5529 5529 5529 5530 5532 5533 5534 5536 5538 5540 5541 5543 5547 5551 5557 5565 5572 5584 5594 5601 5604 5604 5609 5610 5606 5602 5600 5599 5599 5598 5599
5540 5536 5534 5530 5525 5525 5520 5520 5522 5523 5524 5525 5526 5527 5528 5531 5535 5540 5543 5542 5543 5544 5545 5547 5551 5556 5563 5569 5575 5584 5598 5606 5604 5607 5605 5605 5601 5595 5593 5591 5588 5586 5586
5531 5527 5521 5517 5515 5511 5513 5516 5517 5517 5518 5520 5522 5524 5526 5530 5533 5539 5549 5544 5544 5546 5547 5551 5555 5561 5568 5575 5580 5587 5594 5598 5602 5601 5600 5597 5593 5588 5586 5584 5581 5577 5574
5520 5513 5508 5505 5501 5503 5507 5512 5511 5512 5513 5515 5517 5520 5523 5526 5529 5537 5543 5544 5547 5548 5551 5555 5561 5566 5576 5579 5580 5581 5583 5590 5600 5600 5598 5594 5588 5585 5579 5574 5568 5565 5565
5508 5503 5499 5495 5498 5502 5503 5507 5506 5507 5508 5510 5513 5517 5521 5523 5527 5532 5537 5539 5540 5542 5546 5552 5558 5564 5571 5576 5577 5576 5576 5579 5584 5594 5589 5583 5575 5571 5570 5560 5559 5557 5559
5500 5498 5492 5495 5502 5501 5501 5502 5502 5503 5504 5506 5510 5515 5517 5520 5525 5530 5534 5536 5538 5541 5545 5550 5555 5560 5563 5568 5571 5570 5569 5569 5572 5572 5572 5568 5564 5563 5560 5560 5555 5554 5556
5500 5491 5495 5499 5502 5501 5502 5500 5499 5500 5501 5503 5506 5511 5515 5519 5522 5527 5532 5534 5537 5539 5541 5545 5550 5553 5553 5556 5562 5562 5559 5558 5557 5558 5555 5553 5552 5555 5557 5556 5557 5557 5558
5495 5495 5498 5497 5500 5501 5506 5506 5503 5504 5502 5503 5507 5511 5514 5518 5520 5525 5530 5533 5535 5536 5537 5539 5539 5543 5545 5549 5555 5553 5553 5555 5553 5550 5552 5548 5550 5552 5554 5557 5560 5559 5554
5494 5496 5498 5499 5500 5500 5502 5503 5505 5509 5508 5512 5514 5514 5517 5517 5520 5522 5526 5529 5530 5531 5531 5533 5535 5537 5539 5543 5547 5550 5549 5550 5550 5551 5547 5546 5548 5547 5547 5545 5546 5549 5550
5493 5495 5496 5496 5498 5499 5500 5503 5505 5508 5513 5517 5518 5522 5522 5524 5520 5521 5523 5526 5529 5533 5532 5534 5531 5532 5535 5537 5542 5541 5544 5548 5551 5549 5547 5545 5543 5541 5539 5535 5534 5533 5531
5492 5493 5493 5494 5494 5494 5498 5500 5503 5506 5511 5513 5517 5522 5524 5521 5520 5523 5523 5526 5528 5529 5529 5528 5531 5533 5537 5538 5536 5539 5543 5544 5543 5542 5539 5537 5534 5529 5529 5531 5531 5526 5520
5487 5490 5493 5494 5491 5490 5493 5495 5494 5495 5501 5505 5509 5511 5516 5515 5511 5514 5526 5531 5531 5532 5531 5533 5532 5532 5530 5532 5533 5535 5534 5533 5534 5532 5530 5527 5526 5527 5526 5522 5525 5520 5519
5487 5490 5490 5493 5492 5495 5494 5488 5490 5482 5481 5489 5491 5503 5501 5503 5499 5499 5509 5520 5524 5527 5530 5534 5529 5527 5525 5526 5525 5525 5523 5523 5524 5523 5523 5522 5521 5520 5518 5513 5512 5511 5509
5488 5489 5487 5491 5493 5494 5497 5495 5483 5483 5483 5482 5483 5487 5497 5492 5497 5503 5508 5513 5518 5522 5527 5523 5519 5519 5517 5516 5516 5516 5514 5511 5510 5510 5510 5509 5508 5507 5506 5503 5501 5500 5498
5486 5486 5490 5491 5493 5494 5497 5501 5504 5492 5491 5491 5489 5489 5491 5494 5500 5504 5508 5509 5513 5518 5515 5511 5508 5506 5505 5503 5502 5501 5499 5495 5495 5496 5497 5496 5496 5496 5495 5494 5492 5487 5487
5489 5486 5492 5492 5493 5497 5499 5501 5503 5505 5506 5506 5498 5496 5496 5497 5498 5501 5506 5513 5511 5504 5501 5497 5494 5491 5489 5487 5487 5486 5485 5485 5483 5483 5484 5483 5484 5484 5485 5484 5481 5480 5480
5490 5491 5493 5496 5496 5497 5501 5502 5504 5504 5505 5506 5504 5503 5503 5500 5498 5497 5497 5497 5494 5491 5488 5485 5481 5479 5476 5474 5472 5472 5471 5469 5467 5468 5469 5471 5471 5472 5474 5477 5475 5470 5473
5491 5485 5491 5497 5500 5501 5502 5503 5503 5503 5505 5505 5500 5496 5499 5504 5498 5495 5490 5487 5484 5480 5476 5472 5469 5465 5461 5458 5456 5454 5453 5453 5452 5451 5452 5455 5457 5461 5465 5469 5471 5473 5473
5492 5494 5489 5497 5499 5499 5499 5501 5500 5500 5502 5502 5499 5489 5487 5496 5488 5484 5481 5477 5473 5470 5465 5461 5456 5451 5446 5442 5439 5437 5436 5436 5436 5436 5438 5441 5446 5451 5454 5460 5467 5469 5469
5491 5492 5494 5493 5492 5494 5497 5498 5498 5497 5498 5499 5498 5494 5489 5493 5484 5478 5474 5470 5464 5459 5453 5448 5442 5438 5435 5433 5431 5430 5429 5429 5429 5429 5431 5435 5439 5443 5447 5454 5463 5466 5467
5489 5491 5490 5488 5492 5491 5496 5495 5493 5495 5495 5494 5494 5494 5492 5487 5481 5474 5469 5463 5457 5451 5444 5439 5436 5435 5433 5430 5428 5426 5426 5425 5425 5428 5430 5433 5436 5441 5445 5452 5461 5463 5467
5485 5487 5488 5491 5488 5492 5493 5492 5492 5488 5490 5491 5490 5488 5487 5482 5475 5469 5463 5457 5450 5444 5441 5440 5439 5435 5431 5428 5426 5425 5424 5424 5426 5429 5432 5435 5438 5441 5446 5453 5458 5463 5465
5484 5485 5485 5486 5487 5488 5490 5489 5489 5489 5489 5487 5485 5484 5482 5475 5469 5462 5457 5452 5449 5446 5443 5441 5438 5434 5431 5429 5427 5427 5427 5428 5429 5431 5436 5438 5440 5444 5449 5454 5460 5463 5470
5478 5480 5482 5483 5483 5482 5484 5485 5485 5486 5485 5482 5480 5479 5477 5469 5462 5457 5453 5449 5447 5445 5444 5442 5437 5433 5430 5428 5428 5429 5431 5432 5434 5436 5439 5441 5445 5450 5454 5459 5460 5463 5468